Location: Bennemühlen
(52.5740°N, 9.7135°E)
Time: 00:40:31
(UTC+00:00)

NOSS 2-1 (C) - Pass Details

Date: 19 May 2025
Orbit: 378 x 1699 km, 63.3° (Epoch: 22 June)

Event Time Altitude Azimuth Distance (km) Brightness Sun altitude
Exits shadow 22:55:15 35° 233° (SW) 684 3.5 -17.3°
Maximum altitude 22:56:27 81° 316° (NW) 408 2.6 -17.3°
Drops below altitude 10° 22:59:26 10° 45° (NE) 1,405 6.0 -17.3°
Sets 23:01:24 0° 47° (NE) 2,269 7.1 -17.4°
